Location: Redwood Loop Observatory
(43.9900°N, 124.0900°W)
Time: 22:13:38
(UTC-08:00)

UWE-3 - Visible Passes

Search period start: 14 December 2019 00:00
Search period end: 24 December 2019 00:00
Orbit: 585 x 683 km, 97.6° (Epoch: 14 December)

Date Brightness Start Highest point End Pass type
(mag) Time Alt. Az. Time Alt. Az. Time Alt. Az.
14 Dec ? 06:11:24 10° N 06:15:44 76° WNW 06:19:56 10° SSW visible
14 Dec ? 17:08:33 10° SSE 17:13:13 84° WSW 17:17:51 10° NNW visible
15 Dec ? 04:57:46 10° NE 05:00:37 17° E 05:03:24 10° SE visible
15 Dec ? 06:33:11 10° N 06:37:18 44° WNW 06:41:18 10° SW visible
15 Dec ? 17:30:23 10° S 17:34:54 50° W 17:39:23 10° NNW visible
16 Dec ? 05:18:42 10° NE 05:22:26 28° E 05:26:03 10° SSE visible
16 Dec ? 06:55:10 10° N 06:58:47 27° WNW 07:02:19 10° SW visible
16 Dec ? 17:52:32 10° SSW 17:56:38 30° W 18:00:42 10° NNW visible
17 Dec ? 05:40:01 10° NNE 05:44:11 48° E 05:48:13 10° S visible
17 Dec ? 18:15:11 10° SW 18:18:26 19° W 18:21:41 10° NW visible
18 Dec ? 06:01:32 10° NNE 06:05:51 85° ESE 06:10:01 10° SSW visible
18 Dec ? 18:38:56 10° WSW 18:40:19 11° W 18:41:42 10° WNW visible
19 Dec ? 04:48:30 10° ENE 04:50:36 13° E 04:52:42 10° ESE visible
19 Dec ? 06:23:15 10° N 06:27:26 55° WNW 06:31:30 10° SSW visible
19 Dec ? 17:20:27 10° S 17:25:02 62° W 17:29:34 10° NNW visible
20 Dec ? 05:09:05 10° NE 05:12:27 22° E 05:15:45 10° SE visible
20 Dec ? 06:45:09 10° N 06:48:57 32° WNW 06:52:40 10° SW visible
20 Dec ? 17:42:28 10° SSW 17:46:44 37° W 17:50:58 10° NNW visible
21 Dec ? 05:30:15 10° NNE 05:34:13 38° E 05:38:06 10° SSE visible
21 Dec ? 07:07:18 10° NNW 07:10:24 20° WNW 07:13:26 10° WSW visible
21 Dec ? 18:04:53 10° SW 18:08:31 23° W 18:12:06 10° NW visible
22 Dec ? 05:51:42 10° NNE 05:55:55 67° ESE 06:00:02 10° S visible
22 Dec ? 18:28:00 10° WSW 18:30:21 14° W 18:32:41 10° WNW visible
23 Dec ? 04:39:52 10° ENE 04:40:35 10° E 04:41:17 10° E visible
23 Dec ? 06:13:20 10° N 06:17:32 70° WNW 06:21:39 10° SSW visible
23 Dec ? 17:10:35 10° S 17:15:11 78° WSW 17:19:41 10° NNW visible
